Flag for Poland Weather past 2 weeks in Gorzów Wielkopolski, Poland

Now
68 °F

Clear.


Feels Like: 68 °F
Forecast: 61 / 76 °F
Wind: 2 mph from Northeast

Location: Gorzow Wlkp

Current Time: Jul 30, 2014 at 3:25:07 AM

Latest Report: Jul 30, 2014 at 2:00 AM


Visibility: 9 mi

Pressure: 29.71 "Hg

Humidity: 88%

Dew point: 64 °F

Location of Gorzów WielkopolskiLocation

Historic Weather in Gorzów Wielkopolski — Graph

°F

Gorzów Wielkopolski temperature yesterday

Maximum temperature yesterday: 86 °F (at 4:00 PM)
Minimum temperature yesterday: 66 °F (at 6:00 AM)
Average temperature yesterday: 76 °F

Past Weeks' High & Low Weather Summary

 TemperatureHumidityPressure
High91 °F (Jul 20, 4:00 PM)97% (Jul 15, 2:00 AM)30.18 "Hg (Jul 15, 2:00 AM)
Low60 °F (Jul 24, 2:00 AM)26% (Jul 19, 7:00 PM)29.70 "Hg (Jul 29, 6:00 PM)
Average73 °F63%29.98 "Hg
* Reported Jul 15 1:00 AM — Jul 30 1:00 AM, Gorzów Wielkopolski, Weather by CustomWeather, © 2014

Note: Actual official high and low records may vary slightly from our data, if they occured in-between our weather recording intervals... More about our weather records

Advertising

Gorzów Wielkopolski weather history for previous 24 hours

 ConditionsComfort  
Time TempWeatherWind HumidityBarometerVisibility
1:00 AM
Jul 30
69 °FClear.1 mph86%29.72 "Hg11 mi
12:00 AM70 °FPassing clouds.1 mph84%29.71 "Hg11 mi
11:00 PM
Jul 29
72 °FPassing clouds.1 mph80%29.72 "Hg11 mi
10:00 PM75 °FPassing clouds.1 mph74%29.73 "Hg12 mi
9:00 PM77 °FPassing clouds.2 mph67%29.73 "Hg12 mi
8:00 PM78 °FPartly sunny.1 mph61%29.72 "Hg16 mi
7:00 PM83 °FPartly sunny.3 mph47%29.70 "Hg16 mi
6:00 PM84 °FScattered clouds.3 mph48%29.70 "Hg19 mi
5:00 PM83 °FThunderstorms. Partly sunny.3 mph51%29.70 "Hg19 mi
4:00 PM86 °FScattered clouds.2 mph47%29.71 "Hg19 mi
3:00 PM80 °FThunderstorms. Partly sunny.2 mph63%29.73 "Hg19 mi
2:00 PM85 °FScattered clouds.2 mph47%29.75 "Hg16 mi
1:00 PM84 °FScattered clouds.2 mph48%29.76 "Hg12 mi
12:00 PM82 °FPassing clouds.1 mph55%29.77 "Hg12 mi
11:00 AM80 °FPassing clouds.1 mph59%29.78 "Hg12 mi
10:00 AM77 °FPassing clouds.1 mph71%29.78 "Hg9 mi
9:00 AM74 °FScattered clouds.2 mph74%29.78 "Hg6 mi
8:00 AM70 °FScattered clouds.2 mph83%29.78 "Hg6 mi
7:00 AM67 °FScattered clouds.1 mph90%29.80 "Hg6 mi
6:00 AM66 °FScattered clouds.1 mph90%29.80 "Hg6 mi
5:00 AM66 °FPassing clouds.2 mph89%29.80 "Hg9 mi
4:00 AM67 °FPassing clouds.2 mph87%29.80 "Hg12 mi
3:00 AM67 °FOvercast.1 mph85%29.81 "Hg16 mi
Weather by CustomWeather, © 2014

See weather overviewHow to use our weather pages